Maryland Science Center, MD

12:35 PM EST on December 05, 2019 (GMT -0500)
Maryland Science Center

Weather History for KDMH - October, 2019

Change the Weather History Date:

Tuesday, October 1, 2019

  Actual Average Record
Temperature  
Mean Temperature 79 °F 66 °F  
Max Temperature 89 °F 74 °F 89 °F (2019)
Min Temperature 70 °F 57 °F 52 °F (1999)
Degree Days  
Heating Degree Days 0 3  
Month to date heating degree days 3  
Since 1 July heating degree days 21  
Cooling Degree Days 14 3  
Month to date cooling degree days 3  
Year to date cooling degree days 1628  
Growing Degree Days 29 (Base 50)    
Moisture  
Dew Point 64 °F    
Average Humidity 63    
Maximum Humidity 82    
Minimum Humidity 49    
Precipitation  
Precipitation 0.00 in 0.11 in 0.66 in (2015)
Month to date precipitation 0.11  
Year to date precipitation 31.57  
Sea Level Pressure  
Sea Level Pressure 30.08 in    
Wind  
Wind Speed - (North)    
Max Wind Speed -    
Max Gust Speed -    
T = Trace of Precipitation, MM = Missing Value Source: NWS Daily Summary

Daily Weather History Graph

Daily Weather History Graph

Search for Another Location

Airport or City:

Astronomy

Oct. 01, 2019 Rise Set
Actual Time 7:02 AM EDT 6:49 PM EDT
Civil Twilight 6:35 AM EDT 7:16 PM EDT
Nautical Twilight 6:04 AM EDT 7:47 PM EDT
Astronomical Twilight 5:33 AM EDT 8:18 PM EDT
Moon 10:14 AM EDT (10/1) 9:02 PM EDT (10/1)
Length of Visible Light 12h 40m
Length of Day
11h 47m
Waxing Crescent, 12% of the Moon is Illuminated
Oct 1
Waxing Crescent
Oct 5
First Quarter
Oct 13
Full
Oct 21
Last Quarter
Oct 27
New

Hourly Weather History & Observations

Time (EDT) Temp. Heat Index Dew Point Humidity Pressure Visibility Wind Dir Wind Speed Gust Speed Precip Events Conditions
12:54 AM 70.0 °F - 59.0 °F 68% 30.18 in - North - - N/A   Unknown
1:54 AM 70.0 °F - 57.9 °F 65% 30.17 in - North - - N/A   Unknown
2:54 AM 70.0 °F - 57.9 °F 65% 30.15 in - North - - N/A   Unknown
3:54 AM 70.0 °F - 59.0 °F 68% 30.15 in - North - - N/A   Unknown
4:54 AM 70.0 °F - 59.0 °F 68% 30.16 in - North - - N/A   Unknown
6:54 AM 70.0 °F - 60.1 °F 71% 30.15 in - North - - N/A   Unknown
8:54 AM 72.0 °F - 61.0 °F 68% 30.14 in - North - - N/A   Unknown
9:54 AM 75.0 °F - 62.1 °F 64% 30.14 in - North - - N/A   Unknown
10:54 AM 79.0 °F - 63.0 °F 58% 30.13 in - North - - N/A   Unknown
11:54 AM 82.9 °F 84.4 °F 64.0 °F 53% 30.10 in - North - - N/A   Unknown
12:54 PM 84.9 °F 86.6 °F 64.9 °F 51% 30.07 in - North - - N/A   Unknown
1:54 PM 88.0 °F 90.7 °F 66.9 °F 49% 30.04 in - North - - N/A   Unknown
2:54 PM 86.0 °F 88.8 °F 66.9 °F 53% 30.03 in - North - - N/A   Unknown
3:54 PM 84.9 °F 87.6 °F 66.9 °F 55% 30.01 in - North - - N/A   Unknown
4:54 PM 82.9 °F 85.8 °F 68.0 °F 60% 30.00 in - North - - N/A   Unknown
5:54 PM 82.9 °F 85.4 °F 66.9 °F 58% 29.99 in - North - - N/A   Unknown
6:54 PM 80.1 °F 82.3 °F 66.9 °F 64% 29.99 in - North - - N/A   Unknown
7:54 PM 78.1 °F - 68.0 °F 71% 29.99 in - North - - N/A   Unknown
9:54 PM 75.9 °F - 68.0 °F 76% 29.99 in - North - - N/A   Unknown
11:54 PM 73.9 °F - 68.0 °F 82% 29.96 in - North - - N/A   Unknown